Tracking 25612 objects as of 21-May-2022
HD Live streaming from Space Station
objects crossing your sky now

COSMOS 1275 DEB

Track COSMOS 1275 DEB now!
10-day predictions


NORAD ID: 12692
Int'l Code: 1981-053AL
Perigee: 760.5 km
Apogee: 864.5 km
Inclination: 82.9 °
Period: 101.0 minutes
Semi major axis: 7183 km
RCS: 0.5057 m2 (medium)
Launch date: June 4, 1981
Source: Commonwealth of Independent States (former USSR) (CIS)
Launch site: PLESETSK MISSILE AND SPACE COMPLEX (PKMTR)

Note: This is SATELLITE DEBRIS
aabbcc
Your satellite tracking list
Your tracking list is empty




NASA's NSSDC Master Catalog

Two Line Element Set (TLE):
1 12692U 81053AL  22140.43754256  .00001208  00000-0  48690-3 0  9993
2 12692  82.8996 168.9176 0072448 230.3104 129.1678 14.25932459105329
Source of the keplerian elements: AFSPC